Location: Sigmaringen
(48.0900°N, 9.2120°E)
Time: 09:53:55
(UTC+02:00)

ISS - Pass Details

Date: 11 February 2018
Orbit: 402 x 406 km, 51.6° (Epoch: 18 June)

Event Time Altitude Azimuth Distance (km) Brightness Sun altitude
Rises 19:16:28 0° 286° (WNW) 2,320 1.4 -16.8°
Reaches altitude 10° 19:18:55 10° 268° (W) 1,458 0.3 -17.2°
Maximum altitude 19:21:19 19° 221° (SW) 1,030 -1.3 -17.6°
Drops below altitude 10° 19:23:43 10° 173° (S) 1,453 -1.1 -18.0°
Enters shadow 19:24:05 - 169° (S) 1,570 -1.0 -18.0°
